Location: Mason Neck State Park
(38.6428°N, 77.1981°W)
Time: 01:49:31
(UTC-05:00)

ISS - Visible Passes

Search period start: 03 December 2016 00:00
Search period end: 13 December 2016 00:00
Orbit: 401 x 410 km, 51.6° (Epoch: 03 December)

Date Brightness Start Highest point End Pass type
(mag) Time Alt. Az. Time Alt. Az. Time Alt. Az.
03 Dec -2.6 17:43:27 10° WSW 17:46:38 46° NW 17:49:07 15° NE visible
04 Dec -1.0 18:29:25 10° WNW 18:31:36 16° NNW 18:32:02 16° NNW visible
05 Dec -1.5 17:36:45 10° W 17:39:27 23° NNW 17:42:12 10° NNE visible
06 Dec -0.7 18:23:32 10° NNW 18:24:38 11° NNW 18:25:03 11° N visible
07 Dec -0.9 17:30:28 10° NW 17:32:23 14° NNW 17:34:19 10° NNE visible
09 Dec -0.7 17:24:46 10° NNW 17:25:22 10° N 17:25:59 10° N visible
12 Dec -0.8 18:03:00 10° N 18:03:41 11° N 18:03:41 11° N visible
